Location: Silent Lake
(44.9206°N, 78.0708°W)
Time: 13:22:19
(UTC-04:00)

Cosmos 405 Rocket - Pass Details

Date: 19 April 2018
Orbit: 491 x 556 km, 81.3° (Epoch: 20 September)

Event Time Altitude Azimuth Distance (km) Brightness Sun altitude
Exits shadow 22:41:36 48° 18° (NNE) 690 3.4 -24.2°
Drops below altitude 10° 22:44:31 10° 12° (NNE) 1,786 5.9 -24.6°
Sets 22:46:42 0° 12° (NNE) 2,693 6.9 -24.8°
